カタログに戻る

STARLINK-31331

運用中通信VLEO
NORAD 58946·PAYLOAD·🇺🇸 United States

打ち上げ Feb 10, 2024 から Vandenberg Space Force Base

Loading…

次のパス (今後24時間)

TLE

最新Source: CelesTrak SupGP

元期: Sep 15, 2026, 02:01 UTC

1 58946C 24027R   26258.08451389  .00012573  00000+0  40433-3 0  2580
2 58946  53.1570 148.4169 0001291  86.1797  16.7773 15.31694270    19

AllMySatでSTARLINK-31331をリアルタイム追跡

Download on the App Store